Los Alamos, NM

8:58 PM MST on December 12, 2017 (GMT -0700)
Los Alamos

Weather History for KLAM - April, 2014

Change the Weather History Date:

Sunday, April 13, 2014

  Actual Average Record
Temperature  
Mean Temperature 48 °F -  
Max Temperature 60 °F 57 °F 75 °F (2006)
Min Temperature 35 °F 31 °F 18 °F (1980)
Degree Days  
Heating Degree Days 18    
Moisture  
Dew Point 23 °F    
Average Humidity 42    
Maximum Humidity 86    
Minimum Humidity 17    
Precipitation  
Precipitation 0.00 in - - ()
Sea Level Pressure  
Sea Level Pressure 29.83 in    
Wind  
Wind Speed 9 mph (WSW)    
Max Wind Speed 32 mph    
Max Gust Speed 47 mph    
Visibility 10 miles    
Events Rain    
Averages and records for this station are not official NWS values.
T = Trace of Precipitation, MM = Missing Value Source: NWS Daily Summary

Daily Weather History Graph

Daily Weather History Graph

Search for Another Location

Airport or City:

Trip Planner

Search our weather history database for the weather conditions in past years. The results will help you decide how hot, cold, wet, or windy it might be!

Date:

Astronomy

Apr. 13, 2014 Rise Set
Actual Time 6:34 AM MDT 7:36 PM MDT
Civil Twilight 6:08 AM MDT 8:03 PM MDT
Nautical Twilight 5:37 AM MDT 8:34 PM MDT
Astronomical Twilight 5:05 AM MDT 9:06 PM MDT
Moon 6:19 PM MDT 5:31 AM MDT
Length of Visible Light 13h 54m
Length of Day
13h 02m
Waxing Gibbous, 97% of the Moon is Illuminated
Apr 13
Waxing Gibbous
Apr 15
Full
Apr 22
Last Quarter
Apr 29
New
May 6
First Quarter

Hourly Weather History & Observations

Time (MDT) Temp. Windchill Dew Point Humidity Pressure Visibility Wind Dir Wind Speed Gust Speed Precip Events Conditions
12:15 AM 53.4 °F - 16.7 °F 24% 29.84 in 10.0 mi Calm Calm - N/A   Scattered Clouds
12:35 AM 53.4 °F - 18.0 °F 25% 29.84 in 10.0 mi West 9.2 mph - N/A   Clear
12:55 AM 51.4 °F - 18.5 °F 27% 29.85 in 10.0 mi NW 5.8 mph - N/A   Clear
1:15 AM 51.3 °F - 19.4 °F 29% 29.83 in 10.0 mi NNW 5.8 mph - N/A   Clear
1:35 AM 49.8 °F - 19.4 °F 30% 29.83 in 10.0 mi Calm Calm - N/A   Clear
1:55 AM 50.5 °F - 19.2 °F 29% 29.83 in 10.0 mi SSE 3.5 mph - N/A   Clear
2:15 AM 48.7 °F - 19.4 °F 31% 29.83 in 10.0 mi SSE 8.1 mph - N/A   Clear
2:35 AM 49.6 °F - 19.2 °F 30% 29.82 in 10.0 mi South 11.5 mph 17.3 mph N/A   Clear
2:55 AM 48.7 °F - 19.2 °F 31% 29.82 in 10.0 mi SSE 6.9 mph - N/A   Clear
3:15 AM 47.7 °F - 19.8 °F 33% 29.82 in 10.0 mi South 10.4 mph - N/A   Clear
3:35 AM 48.7 °F - 20.1 °F 32% 29.81 in 10.0 mi SW 10.4 mph - N/A   Clear
3:55 AM 48.2 °F - 20.1 °F 33% 29.81 in 10.0 mi WSW 8.1 mph - N/A   Clear
4:15 AM 49.1 °F - 19.2 °F 31% 29.81 in 10.0 mi West 9.2 mph - N/A   Clear
4:35 AM 48.4 °F - 19.0 °F 31% 29.81 in 10.0 mi West 11.5 mph 18.4 mph N/A   Mostly Cloudy
4:55 AM 48.2 °F - 19.9 °F 33% 29.81 in 10.0 mi WNW 10.4 mph 18.4 mph N/A   Overcast
5:15 AM 48.2 °F - 20.3 °F 33% 29.81 in 10.0 mi WNW 8.1 mph 19.6 mph N/A   Mostly Cloudy
5:35 AM 48.2 °F - 19.8 °F 32% 29.82 in 10.0 mi West 3.5 mph - N/A   Scattered Clouds
6:15 AM 47.3 °F - 19.4 °F 33% 29.81 in 10.0 mi WSW 8.1 mph - N/A   Scattered Clouds
6:35 AM 46.4 °F 41.5 °F 19.2 °F 34% 29.82 in 10.0 mi WSW 10.4 mph - N/A   Clear
6:55 AM 45.9 °F 41.2 °F 19.4 °F 35% 29.82 in 10.0 mi WSW 9.2 mph - N/A   Clear
7:15 AM 46.0 °F 41.4 °F 19.6 °F 35% 29.83 in 10.0 mi West 9.2 mph 16.1 mph N/A   Clear
7:35 AM 47.7 °F - 19.6 °F 33% 29.83 in 10.0 mi WSW 12.7 mph - N/A   Clear
7:55 AM 49.3 °F - 19.4 °F 31% 29.83 in 10.0 mi WSW 10.4 mph - N/A   Clear
8:15 AM 49.6 °F - 17.4 °F 28% 29.84 in 10.0 mi SW 10.4 mph - N/A   Clear
8:35 AM 50.0 °F - 16.7 °F 27% 29.84 in 10.0 mi SW 10.4 mph - N/A   Clear
8:55 AM 51.3 °F - 15.8 °F 25% 29.84 in 10.0 mi SSW 9.2 mph 20.7 mph N/A   Clear
9:15 AM 52.9 °F - 15.1 °F 22% 29.84 in 10.0 mi WSW 9.2 mph - N/A   Clear
9:35 AM 54.3 °F - 16.7 °F 23% 29.84 in 10.0 mi WSW 8.1 mph - N/A   Clear
9:55 AM 54.9 °F - 17.4 °F 23% 29.83 in 10.0 mi South 4.6 mph - N/A   Clear
10:15 AM 55.9 °F - 17.8 °F 22% 29.84 in 10.0 mi ENE 5.8 mph - N/A   Clear
10:35 AM 55.4 °F - 17.4 °F 23% 29.83 in 10.0 mi Calm Calm - N/A   Clear
10:55 AM 58.8 °F - 16.7 °F 19% 29.83 in 10.0 mi WSW 20.7 mph 29.9 mph N/A   Clear
11:15 AM 58.3 °F - 16.5 °F 20% 29.83 in 10.0 mi WNW 11.5 mph 26.5 mph N/A   Scattered Clouds
11:35 AM 59.9 °F - 15.1 °F 17% 29.83 in 10.0 mi West 23.0 mph 28.8 mph N/A   Scattered Clouds
12:15 PM 60.6 °F - 15.6 °F 17% 29.80 in 10.0 mi SW 17.3 mph 27.6 mph N/A   Scattered Clouds
12:35 PM 60.1 °F - 16.3 °F 18% 29.80 in 10.0 mi SW 20.7 mph 36.8 mph N/A   Mostly Cloudy
12:55 PM 52.3 °F - 26.4 °F 37% 29.82 in 10.0 mi West 21.9 mph 31.1 mph N/A   Overcast
1:15 PM 54.7 °F - 24.3 °F 31% 29.80 in 10.0 mi SSW 15.0 mph 27.6 mph N/A   Overcast
1:35 PM 56.1 °F - 23.2 °F 28% 29.78 in 10.0 mi SW 8.1 mph 16.1 mph N/A   Mostly Cloudy
1:55 PM 58.1 °F - 22.8 °F 26% 29.78 in 10.0 mi SSW 9.2 mph 38.0 mph N/A   Mostly Cloudy
2:15 PM 60.1 °F - 19.8 °F 21% 29.76 in 10.0 mi SSW 23.0 mph 38.0 mph N/A   Mostly Cloudy
2:35 PM 60.3 °F - 18.1 °F 20% 29.76 in 10.0 mi WSW 29.9 mph 38.0 mph N/A   Mostly Cloudy
2:55 PM 59.5 °F - 23.2 °F 25% 29.77 in 10.0 mi West 27.6 mph 36.8 mph N/A   Mostly Cloudy
3:35 PM 59.2 °F - 24.6 °F 27% 29.75 in 10.0 mi WSW 16.1 mph 34.5 mph N/A   Clear
3:55 PM 57.6 °F - 22.6 °F 26% 29.73 in 10.0 mi WSW 17.3 mph 25.3 mph N/A   Scattered Clouds
4:15 PM 57.2 °F - 23.0 °F 27% 29.74 in 10.0 mi WSW 28.8 mph 43.7 mph N/A   Mostly Cloudy
4:35 PM 52.7 °F - 28.9 °F 40% 29.76 in 10.0 mi SW 13.8 mph 21.9 mph N/A   Overcast
4:55 PM 55.2 °F - 27.5 °F 34% 29.74 in 10.0 mi WSW 18.4 mph 31.1 mph N/A   Scattered Clouds
5:15 PM 51.4 °F - 32.5 °F 49% 29.77 in 7.0 mi West 31.1 mph 47.2 mph N/A Rain Rain
5:35 PM 45.3 °F 35.4 °F 36.5 °F 71% 29.79 in 7.0 mi West 32.2 mph 41.4 mph N/A   Drizzle
5:55 PM 44.4 °F 35.9 °F 36.5 °F 74% 29.80 in 7.0 mi West 21.9 mph 33.4 mph N/A Rain Light Rain
6:15 PM 43.5 °F 38.3 °F 35.8 °F 74% 29.78 in 10.0 mi WNW 9.2 mph 20.7 mph N/A   Mostly Cloudy
6:35 PM 43.9 °F 38.8 °F 36.1 °F 74% 29.81 in 10.0 mi NNW 9.2 mph 17.3 mph N/A   Light Drizzle
6:55 PM 39.6 °F 30.3 °F 33.3 °F 78% 29.83 in 7.0 mi WNW 18.4 mph 28.8 mph N/A Rain Light Rain
7:15 PM 38.7 °F 31.8 °F 32.4 °F 78% 29.84 in 10.0 mi NNW 10.4 mph 24.2 mph N/A   Overcast
7:35 PM 39.6 °F 34.0 °F 30.4 °F 70% 29.86 in 10.0 mi ENE 8.1 mph - N/A   Overcast
7:55 PM 38.5 °F 33.4 °F 32.4 °F 79% 29.87 in 10.0 mi ESE 6.9 mph - N/A   Overcast
8:15 PM 39.2 °F 34.2 °F 30.4 °F 71% 29.87 in 10.0 mi ESE 6.9 mph - N/A   Overcast
8:35 PM 36.3 °F 31.6 °F 32.2 °F 85% 29.88 in 10.0 mi NE 5.8 mph - N/A   Mostly Cloudy
8:55 PM 36.7 °F 31.2 °F 32.4 °F 84% 29.91 in 10.0 mi ESE 6.9 mph - N/A   Scattered Clouds
9:15 PM 36.1 °F - 32.0 °F 85% 29.91 in 10.0 mi Calm Calm - N/A   Clear
9:35 PM 36.1 °F - 32.0 °F 85% 29.92 in 10.0 mi Calm Calm - N/A   Clear
9:55 PM 36.3 °F 32.5 °F 32.0 °F 84% 29.93 in 10.0 mi West 4.6 mph - N/A   Clear
10:15 PM 36.0 °F 31.1 °F 32.0 °F 86% 29.94 in 10.0 mi SSW 5.8 mph - N/A   Clear
10:35 PM 35.8 °F 29.4 °F 31.1 °F 83% 29.94 in 10.0 mi SW 8.1 mph - N/A   Clear
10:55 PM 37.0 °F 31.6 °F 26.2 °F 65% 29.93 in 10.0 mi SSW 6.9 mph - N/A   Clear
11:15 PM 37.6 °F 32.3 °F 23.7 °F 57% 29.94 in 10.0 mi SSW 6.9 mph - N/A   Clear
11:35 PM 37.6 °F 33.1 °F 22.6 °F 55% 29.95 in 10.0 mi SSW 5.8 mph - N/A   Clear
11:55 PM 37.2 °F 30.0 °F 22.3 °F 55% 29.96 in 10.0 mi West 10.4 mph - N/A   Clear